| time (UTC) | temp F | wind direction | speed MPH | gust MPH | rain 1hr in | rain 24hr in | rain mn in | humidity % | barometer mb |
| 20260505093127 | 60 | 227 | 2.0 | 5.0 | 0.00 | 0.00 | 0.00 | 60 | 1010.9 |
| 20260505092607 | 60 | 244 | 2.0 | 6.0 | 0.00 | 0.00 | 0.00 | 59 | 1011.0 |
| 20260505092107 | 60 | 226 | 3.0 | 6.0 | 0.00 | 0.00 | 0.00 | 59 | 1010.9 |
| 20260505091607 | 60 | 218 | 2.0 | 4.0 | 0.00 | 0.00 | 0.00 | 59 | 1011.0 |
| 20260505091107 | 61 | 240 | 3.0 | 5.0 | 0.00 | 0.00 | 0.00 | 59 | 1010.8 |
| 20260505090607 | 60 | 219 | 2.0 | 5.0 | 0.00 | 0.00 | 0.00 | 59 | 1010.8 |
| 20260505090127 | 60 | 266 | 1.0 | 3.0 | 0.00 | 0.00 | 0.00 | 60 | 1010.8 |
| 20260505085607 | 60 | 233 | 2.0 | 3.0 | 0.00 | 0.00 | 0.00 | 61 | 1010.7 |
| 20260505085107 | 60 | 183 | 1.0 | 3.0 | 0.00 | 0.00 | 0.00 | 61 | 1010.8 |
| 20260505084627 | 60 | 226 | 1.0 | 4.0 | 0.00 | 0.00 | 0.00 | 61 | 1010.7 |
| 20260505084127 | 60 | 171 | 1.0 | 4.0 | 0.00 | 0.00 | 0.00 | 61 | 1010.8 |
| 20260505083632 | 59 | 193 | 1.0 | 2.0 | 0.00 | 0.00 | 0.00 | 62 | 1010.7 |
| 20260505083119 | 59 | 85 | 0.0 | 3.0 | 0.00 | 0.00 | 0.00 | 62 | 1010.8 |
| 20260505082608 | 59 | 232 | 1.0 | 2.0 | 0.00 | 0.00 | 0.00 | 62 | 1010.8 |
| 20260505082200 | 59 | 220 | 0.0 | 2.0 | 0.00 | 0.00 | 0.00 | 63 | 1010.8 |
| 20260505081607 | 59 | 0.0 | 2.0 | 0.00 | 0.00 | 0.00 | 62 | 1010.9 | |
| 20260505081107 | 60 | 229 | 0.0 | 1.0 | 0.00 | 0.00 | 0.00 | 62 | 1010.8 |
| 20260505080607 | 60 | 0.0 | 2.0 | 0.00 | 0.00 | 0.00 | 62 | 1010.7 | |
| 20260505080106 | 60 | 245 | 0.0 | 3.0 | 0.00 | 0.00 | 0.00 | 62 | 1010.7 |
| 20260505075606 | 60 | 206 | 0.0 | 3.0 | 0.00 | 0.00 | 0.00 | 61 | 1010.7 |
| 20260505075106 | 61 | 173 | 0.0 | 2.0 | 0.00 | 0.00 | 0.00 | 61 | 1010.6 |
| 20260505074606 | 61 | 119 | 1.0 | 2.0 | 0.00 | 0.00 | 0.00 | 60 | 1010.6 |
| 20260505074106 | 61 | 153 | 1.0 | 3.0 | 0.00 | 0.00 | 0.00 | 60 | 1010.6 |
| 20260505073606 | 61 | 177 | 0.0 | 2.0 | 0.00 | 0.00 | 0.00 | 60 | 1010.6 |
| 20260505073106 | 62 | 295 | 1.0 | 4.0 | 0.00 | 0.00 | 0.00 | 59 | 1010.5 |
| 20260505072606 | 62 | 212 | 0.0 | 3.0 | 0.00 | 0.00 | 0.00 | 59 | 1010.5 |
| 20260505072106 | 62 | 220 | 1.0 | 3.0 | 0.00 | 0.00 | 0.00 | 59 | 1010.6 |
| 20260505071606 | 62 | 207 | 1.0 | 3.0 | 0.00 | 0.00 | 0.00 | 59 | 1010.5 |
| 20260505071106 | 62 | 130 | 1.0 | 3.0 | 0.00 | 0.00 | 0.00 | 60 | 1010.6 |
| 20260505070606 | 62 | 246 | 1.0 | 3.0 | 0.00 | 0.00 | 0.00 | 59 | 1010.6 |
| 20260505070106 | 62 | 0.0 | 3.0 | 0.00 | 0.00 | 0.00 | 59 | 1010.5 | |
| 20260505065606 | 62 | 196 | 1.0 | 3.0 | 0.00 | 0.00 | 0.00 | 59 | 1010.5 |
| 20260505065106 | 62 | 179 | 1.0 | 2.0 | 0.00 | 0.00 | 0.00 | 58 | 1010.5 |
| 20260505064606 | 62 | 236 | 1.0 | 3.0 | 0.00 | 0.00 | 0.00 | 58 | 1010.5 |
| 20260505064106 | 62 | 226 | 2.0 | 3.0 | 0.00 | 0.00 | 0.00 | 58 | 1010.6 |
| 20260505063606 | 62 | 115 | 0.0 | 4.0 | 0.00 | 0.00 | 0.00 | 58 | 1010.6 |
| 20260505063106 | 62 | 227 | 1.0 | 3.0 | 0.00 | 0.00 | 0.00 | 58 | 1010.6 |
| 20260505062606 | 63 | 220 | 1.0 | 4.0 | 0.00 | 0.00 | 0.00 | 58 | 1010.6 |
| 20260505062106 | 63 | 177 | 1.0 | 2.0 | 0.00 | 0.00 | 0.00 | 57 | 1010.7 |
| 20260505061606 | 63 | 234 | 1.0 | 3.0 | 0.00 | 0.00 | 0.00 | 57 | 1010.6 |
| 20260505061106 | 63 | 221 | 0.0 | 2.0 | 0.00 | 0.00 | 0.00 | 57 | 1010.7 |
| 20260505060606 | 63 | 159 | 1.0 | 3.0 | 0.00 | 0.00 | 0.00 | 57 | 1010.8 |
| 20260505060107 | 63 | 131 | 1.0 | 3.0 | 0.00 | 0.00 | 0.00 | 57 | 1010.6 |
| 20260505055607 | 63 | 162 | 1.0 | 4.0 | 0.00 | 0.00 | 0.00 | 56 | 1010.8 |
| 20260505055127 | 63 | 151 | 1.0 | 2.0 | 0.00 | 0.00 | 0.00 | 57 | 1010.9 |
| 20260505054607 | 63 | 201 | 0.0 | 3.0 | 0.00 | 0.00 | 0.00 | 57 | 1010.8 |
| 20260505054107 | 63 | 209 | 1.0 | 4.0 | 0.00 | 0.00 | 0.00 | 57 | 1010.9 |
| 20260505053607 | 63 | 200 | 1.0 | 2.0 | 0.00 | 0.00 | 0.00 | 57 | 1010.9 |
| 20260505053107 | 63 | 0.0 | 1.0 | 0.00 | 0.00 | 0.00 | 57 | 1010.9 | |
| 20260505052607 | 63 | 204 | 1.0 | 3.0 | 0.00 | 0.00 | 0.00 | 57 | 1010.9 |
| 20260505052107 | 63 | 0.0 | 2.0 | 0.00 | 0.00 | 0.00 | 57 | 1010.9 | |
| 20260505051607 | 63 | 266 | 1.0 | 2.0 | 0.00 | 0.00 | 0.00 | 57 | 1010.9 |
| 20260505051107 | 64 | 218 | 0.0 | 2.0 | 0.00 | 0.00 | 0.00 | 57 | 1010.8 |
| 20260505050607 | 64 | 0.0 | 1.0 | 0.00 | 0.00 | 0.00 | 57 | 1010.9 | |
| 20260505050107 | 64 | 0.0 | 1.0 | 0.00 | 0.00 | 0.00 | 56 | 1011.0 | |
| 20260505041627 | 66 | 231 | 2.0 | 4.0 | 0.00 | 0.00 | 0.00 | 52 | 1010.6 |
| 20260505041128 | 66 | 249 | 2.0 | 4.0 | 0.00 | 0.00 | 0.00 | 52 | 1010.6 |
| 20260505040607 | 66 | 234 | 2.0 | 5.0 | 0.00 | 0.00 | 0.00 | 51 | 1010.3 |
| 20260505040106 | 66 | 242 | 2.0 | 4.0 | 0.00 | 0.00 | 0.00 | 51 | 1010.3 |
| 20260505035606 | 67 | 237 | 3.0 | 5.0 | 0.00 | 0.00 | 0.00 | 51 | 1010.3 |
| 20260505035126 | 67 | 232 | 3.0 | 6.0 | 0.00 | 0.00 | 0.00 | 50 | 1010.2 |
| 20260505034606 | 67 | 228 | 3.0 | 6.0 | 0.00 | 0.00 | 0.00 | 50 | 1010.1 |
| 20260505034106 | 68 | 230 | 3.0 | 6.0 | 0.00 | 0.00 | 0.00 | 49 | 1010.1 |
| 20260505033626 | 67 | 223 | 2.0 | 6.0 | 0.00 | 0.00 | 0.00 | 50 | 1010.1 |
| 20260505033106 | 67 | 231 | 2.0 | 6.0 | 0.00 | 0.00 | 0.00 | 50 | 1010.0 |
| 20260505032606 | 68 | 228 | 4.0 | 6.0 | 0.00 | 0.00 | 0.00 | 49 | 1010.0 |
| 20260505032106 | 68 | 224 | 4.0 | 7.0 | 0.00 | 0.00 | 0.00 | 49 | 1010.0 |
| 20260505031606 | 68 | 232 | 4.0 | 7.0 | 0.00 | 0.00 | 0.00 | 50 | 1009.8 |
| 20260505031106 | 68 | 233 | 3.0 | 5.0 | 0.00 | 0.00 | 0.00 | 50 | 1009.8 |
| 20260505030606 | 68 | 233 | 1.0 | 5.0 | 0.00 | 0.00 | 0.00 | 49 | 1009.6 |
| 20260505030106 | 68 | 215 | 2.0 | 6.0 | 0.00 | 0.00 | 0.00 | 49 | 1009.6 |
| 20260505025606 | 68 | 233 | 2.0 | 7.0 | 0.00 | 0.00 | 0.00 | 50 | 1009.5 |
| 20260505025107 | 68 | 227 | 3.0 | 6.0 | 0.00 | 0.00 | 0.00 | 49 | 1009.4 |
| 20260505024626 | 68 | 214 | 2.0 | 6.0 | 0.00 | 0.00 | 0.00 | 49 | 1009.4 |
| 20260505024106 | 68 | 225 | 4.0 | 7.0 | 0.00 | 0.00 | 0.00 | 49 | 1009.3 |
| 20260505023606 | 68 | 221 | 3.0 | 6.0 | 0.00 | 0.00 | 0.00 | 49 | 1009.3 |
| 20260505023226 | 68 | 211 | 0.0 | 6.0 | 0.00 | 0.00 | 0.00 | 49 | 1009.1 |
| 20260505022606 | 68 | 228 | 3.0 | 6.0 | 0.00 | 0.00 | 0.00 | 49 | 1009.1 |
| 20260505022106 | 68 | 244 | 3.0 | 6.0 | 0.00 | 0.00 | 0.00 | 49 | 1009.0 |
| 20260505021606 | 68 | 225 | 2.0 | 6.0 | 0.00 | 0.00 | 0.00 | 49 | 1008.8 |
| 20260505021106 | 68 | 207 | 3.0 | 6.0 | 0.00 | 0.00 | 0.00 | 50 | 1008.7 |
| 20260505020646 | 68 | 202 | 1.0 | 5.0 | 0.00 | 0.00 | 0.00 | 50 | 1008.8 |
| 20260505020106 | 68 | 193 | 2.0 | 5.0 | 0.00 | 0.00 | 0.00 | 51 | 1009.0 |
| 20260505015606 | 68 | 219 | 1.0 | 5.0 | 0.00 | 0.00 | 0.00 | 51 | 1009.0 |
| 20260505015106 | 68 | 235 | 1.0 | 4.0 | 0.00 | 0.00 | 0.00 | 51 | 1009.0 |
| 20260505014606 | 68 | 223 | 1.0 | 4.0 | 0.00 | 0.00 | 0.00 | 51 | 1009.0 |
| 20260505014126 | 68 | 233 | 1.0 | 3.0 | 0.00 | 0.00 | 0.00 | 51 | 1009.0 |
| 20260505013606 | 68 | 273 | 0.0 | 2.0 | 0.00 | 0.00 | 0.00 | 51 | 1009.0 |
| 20260505013106 | 68 | 207 | 0.0 | 3.0 | 0.00 | 0.00 | 0.00 | 51 | 1009.0 |
| 20260505012606 | 68 | 257 | 1.0 | 3.0 | 0.00 | 0.00 | 0.00 | 50 | 1008.9 |
| 20260505012106 | 68 | 229 | 1.0 | 4.0 | 0.00 | 0.00 | 0.00 | 50 | 1008.9 |
| 20260505011606 | 68 | 238 | 0.0 | 3.0 | 0.00 | 0.00 | 0.00 | 50 | 1008.9 |
| 20260505011106 | 68 | 200 | 0.0 | 3.0 | 0.00 | 0.00 | 0.00 | 50 | 1008.8 |
| 20260505010626 | 68 | 0.0 | 2.0 | 0.00 | 0.00 | 0.00 | 50 | 1008.8 | |
| 20260505010106 | 68 | 227 | 0.0 | 1.0 | 0.00 | 0.00 | 0.00 | 49 | 1008.8 |
| 20260505005606 | 69 | 0.0 | 2.0 | 0.00 | 0.00 | 0.00 | 49 | 1008.9 | |
| 20260505005106 | 69 | 0.0 | 2.0 | 0.00 | 0.00 | 0.00 | 49 | 1008.9 | |
| 20260505004606 | 69 | 207 | 1.0 | 2.0 | 0.00 | 0.00 | 0.00 | 49 | 1008.9 |
| 20260505004106 | 69 | 200 | 0.0 | 3.0 | 0.00 | 0.00 | 0.00 | 49 | 1009.0 |
| 20260505003606 | 69 | 0.0 | 2.0 | 0.00 | 0.00 | 0.00 | 48 | 1009.0 | |
| 20260505003106 | 69 | 123 | 0.0 | 2.0 | 0.00 | 0.00 | 0.00 | 48 | 1009.0 |
| 20260505002606 | 70 | 219 | 1.0 | 2.0 | 0.00 | 0.00 | 0.00 | 48 | 1009.0 |
| 20260505002106 | 70 | 228 | 0.0 | 2.0 | 0.00 | 0.00 | 0.00 | 48 | 1009.1 |
| 20260505001606 | 70 | 321 | 0.0 | 2.0 | 0.00 | 0.00 | 0.00 | 47 | 1009.2 |
| 20260505001126 | 71 | 344 | 1.0 | 2.0 | 0.00 | 0.00 | 0.00 | 47 | 1009.2 |
| 20260505000626 | 71 | 189 | 0.0 | 3.0 | 0.00 | 0.00 | 0.00 | 46 | 1009.2 |
| 20260505000126 | 71 | 0.0 | 2.0 | 0.00 | 0.00 | 0.00 | 45 | 1009.2 | |
| 20260504235626 | 72 | 194 | 1.0 | 3.0 | 0.00 | 0.00 | 0.00 | 45 | 1009.4 |
| 20260504235106 | 72 | 250 | 1.0 | 4.0 | 0.00 | 0.00 | 0.00 | 44 | 1009.5 |
| 20260504234606 | 72 | 253 | 2.0 | 6.0 | 0.00 | 0.00 | 0.00 | 44 | 1009.4 |
| 20260504234106 | 73 | 253 | 3.0 | 5.0 | 0.00 | 0.00 | 0.00 | 43 | 1009.5 |
| 20260504233606 | 73 | 240 | 3.0 | 5.0 | 0.00 | 0.00 | 0.00 | 42 | 1009.6 |
| 20260504233106 | 73 | 277 | 2.0 | 4.0 | 0.00 | 0.00 | 0.00 | 43 | 1009.6 |
| 20260504232606 | 74 | 267 | 1.0 | 10.0 | 0.00 | 0.00 | 0.00 | 42 | 1009.7 |
| 20260504232106 | 74 | 245 | 4.0 | 10.0 | 0.00 | 0.00 | 0.00 | 42 | 1009.7 |
| 20260504231646 | 74 | 254 | 3.0 | 5.0 | 0.00 | 0.00 | 0.00 | 43 | 1009.7 |
| 20260504231106 | 74 | 254 | 4.0 | 6.0 | 0.00 | 0.00 | 0.00 | 43 | 1009.8 |
| 20260504230606 | 74 | 266 | 3.0 | 4.0 | 0.00 | 0.00 | 0.00 | 44 | 1009.8 |
| 20260504230106 | 74 | 255 | 2.0 | 6.0 | 0.00 | 0.00 | 0.00 | 44 | 1009.8 |
| 20260504225626 | 75 | 242 | 2.0 | 5.0 | 0.00 | 0.00 | 0.00 | 43 | 1009.7 |
| 20260504225126 | 75 | 237 | 2.0 | 4.0 | 0.00 | 0.00 | 0.00 | 42 | 1009.8 |
| 20260504224606 | 75 | 261 | 2.0 | 4.0 | 0.00 | 0.00 | 0.00 | 43 | 1009.9 |
| 20260504224106 | 74 | 233 | 3.0 | 8.0 | 0.00 | 0.00 | 0.00 | 43 | 1009.8 |
| 20260504223606 | 74 | 250 | 3.0 | 6.0 | 0.00 | 0.00 | 0.00 | 42 | 1009.9 |
| 20260504223126 | 75 | 251 | 3.0 | 7.0 | 0.00 | 0.00 | 0.00 | 42 | 1009.8 |
| 20260504222606 | 75 | 245 | 4.0 | 8.0 | 0.00 | 0.00 | 0.00 | 41 | 1009.8 |
| 20260504222106 | 75 | 241 | 4.0 | 9.0 | 0.00 | 0.00 | 0.00 | 41 | 1009.8 |
| 20260504221606 | 75 | 252 | 4.0 | 8.0 | 0.00 | 0.00 | 0.00 | 40 | 1009.8 |
| 20260504221106 | 75 | 231 | 4.0 | 9.0 | 0.00 | 0.00 | 0.00 | 40 | 1009.8 |
| 20260504220606 | 75 | 244 | 4.0 | 8.0 | 0.00 | 0.00 | 0.00 | 41 | 1009.8 |
| 20260504220106 | 75 | 236 | 5.0 | 9.0 | 0.00 | 0.00 | 0.00 | 40 | 1009.8 |
| 20260504215646 | 75 | 231 | 5.0 | 9.0 | 0.00 | 0.00 | 0.00 | 41 | 1009.7 |
| 20260504215106 | 75 | 240 | 3.0 | 6.0 | 0.00 | 0.00 | 0.00 | 41 | 1009.9 |
| 20260504214606 | 75 | 249 | 4.0 | 8.0 | 0.00 | 0.00 | 0.00 | 41 | 1009.9 |
| 20260504214106 | 75 | 245 | 5.0 | 9.0 | 0.00 | 0.00 | 0.00 | 40 | 1009.8 |
| 20260504213606 | 75 | 248 | 5.0 | 10.0 | 0.00 | 0.00 | 0.00 | 41 | 1009.9 |
| 20260504213126 | 75 | 244 | 4.0 | 7.0 | 0.00 | 0.00 | 0.00 | 41 | 1009.8 |
| 20260504212606 | 75 | 240 | 3.0 | 8.0 | 0.00 | 0.00 | 0.00 | 41 | 1009.9 |
| 20260504212106 | 76 | 241 | 4.0 | 9.0 | 0.00 | 0.00 | 0.00 | 42 | 1009.9 |
| 20260504211606 | 76 | 252 | 6.0 | 12.0 | 0.00 | 0.00 | 0.00 | 41 | 1009.9 |
| 20260504211126 | 76 | 248 | 4.0 | 9.0 | 0.00 | 0.00 | 0.00 | 42 | 1009.9 |
| 20260504210524 | 75 | 246 | 5.0 | 11.0 | 0.00 | 0.00 | 0.00 | 41 | 1009.9 |
| 20260504210106 | 75 | 258 | 5.0 | 8.0 | 0.00 | 0.00 | 0.00 | 42 | 1009.9 |
| 20260504205606 | 75 | 243 | 5.0 | 9.0 | 0.00 | 0.00 | 0.00 | 42 | 1010.0 |
| 20260504205126 | 75 | 254 | 5.0 | 10.0 | 0.00 | 0.00 | 0.00 | 42 | 1010.0 |
| 20260504204606 | 75 | 261 | 5.0 | 10.0 | 0.00 | 0.00 | 0.00 | 42 | 1010.1 |
| 20260504204106 | 75 | 245 | 5.0 | 11.0 | 0.00 | 0.00 | 0.00 | 42 | 1010.1 |
| 20260504203606 | 75 | 243 | 7.0 | 11.0 | 0.00 | 0.00 | 0.00 | 42 | 1010.3 |
| 20260504203106 | 75 | 240 | 3.0 | 8.0 | 0.00 | 0.00 | 0.00 | 42 | 1010.3 |
| 20260504202606 | 75 | 246 | 6.0 | 12.0 | 0.00 | 0.00 | 0.00 | 42 | 1010.4 |
| 20260504202106 | 76 | 246 | 4.0 | 9.0 | 0.00 | 0.00 | 0.00 | 43 | 1010.4 |
| 20260504201606 | 75 | 267 | 2.0 | 6.0 | 0.00 | 0.00 | 0.00 | 44 | 1010.5 |
| 20260504201106 | 74 | 256 | 4.0 | 7.0 | 0.00 | 0.00 | 0.00 | 43 | 1010.6 |
| 20260504200606 | 74 | 261 | 4.0 | 10.0 | 0.00 | 0.00 | 0.00 | 42 | 1010.8 |
| 20260504200106 | 75 | 249 | 5.0 | 11.0 | 0.00 | 0.00 | 0.00 | 42 | 1010.8 |
| 20260504195606 | 75 | 250 | 4.0 | 8.0 | 0.00 | 0.00 | 0.00 | 44 | 1010.9 |
| 20260504195106 | 75 | 228 | 3.0 | 6.0 | 0.00 | 0.00 | 0.00 | 44 | 1010.9 |
| 20260504194606 | 75 | 251 | 7.0 | 11.0 | 0.00 | 0.00 | 0.00 | 44 | 1011.0 |
| 20260504194126 | 75 | 237 | 2.0 | 8.0 | 0.00 | 0.00 | 0.00 | 44 | 1011.1 |
| 20260504193606 | 74 | 258 | 5.0 | 10.0 | 0.00 | 0.00 | 0.00 | 46 | 1011.0 |
| 20260504193106 | 74 | 238 | 5.0 | 10.0 | 0.00 | 0.00 | 0.00 | 47 | 1011.1 |
| 20260504192606 | 74 | 238 | 3.0 | 8.0 | 0.00 | 0.00 | 0.00 | 47 | 1011.2 |
| 20260504192128 | 74 | 226 | 4.0 | 8.0 | 0.00 | 0.00 | 0.00 | 46 | 1011.1 |
| 20260504191606 | 74 | 211 | 3.0 | 11.0 | 0.00 | 0.00 | 0.00 | 47 | 1011.2 |
| 20260504191107 | 74 | 227 | 3.0 | 10.0 | 0.00 | 0.00 | 0.00 | 47 | 1011.3 |
| 20260504190606 | 73 | 237 | 4.0 | 9.0 | 0.00 | 0.00 | 0.00 | 47 | 1011.3 |
| 20260504190106 | 73 | 230 | 6.0 | 12.0 | 0.00 | 0.00 | 0.00 | 47 | 1011.4 |
| 20260504185606 | 73 | 244 | 5.0 | 10.0 | 0.00 | 0.00 | 0.00 | 48 | 1011.4 |
| 20260504185106 | 73 | 211 | 5.0 | 10.0 | 0.00 | 0.00 | 0.00 | 47 | 1011.4 |
| 20260504184606 | 73 | 245 | 2.0 | 5.0 | 0.00 | 0.00 | 0.00 | 48 | 1011.4 |
| 20260504184106 | 72 | 229 | 4.0 | 9.0 | 0.00 | 0.00 | 0.00 | 48 | 1011.5 |
| 20260504183606 | 72 | 226 | 3.0 | 8.0 | 0.00 | 0.00 | 0.00 | 48 | 1011.4 |
| 20260504183106 | 72 | 216 | 5.0 | 10.0 | 0.00 | 0.00 | 0.00 | 48 | 1011.4 |
| 20260504182606 | 72 | 218 | 3.0 | 10.0 | 0.00 | 0.00 | 0.00 | 49 | 1011.5 |
| 20260504182106 | 72 | 222 | 3.0 | 7.0 | 0.00 | 0.00 | 0.00 | 50 | 1011.5 |
| 20260504181606 | 71 | 235 | 4.0 | 8.0 | 0.00 | 0.00 | 0.00 | 51 | 1011.5 |
| 20260504181126 | 71 | 221 | 3.0 | 7.0 | 0.00 | 0.00 | 0.00 | 51 | 1011.6 |
| 20260504180606 | 70 | 222 | 3.0 | 9.0 | 0.00 | 0.00 | 0.00 | 51 | 1011.6 |
| 20260504180106 | 71 | 223 | 3.0 | 9.0 | 0.00 | 0.00 | 0.00 | 53 | 1011.7 |
| 20260504175606 | 70 | 177 | 3.0 | 6.0 | 0.00 | 0.00 | 0.00 | 52 | 1011.6 |
| 20260504175106 | 70 | 193 | 3.0 | 7.0 | 0.00 | 0.00 | 0.00 | 53 | 1011.7 |
| 20260504174626 | 69 | 244 | 3.0 | 10.0 | 0.00 | 0.00 | 0.00 | 54 | 1011.8 |
| 20260504174106 | 69 | 224 | 2.0 | 6.0 | 0.00 | 0.00 | 0.00 | 54 | 1011.8 |
| 20260504173606 | 69 | 175 | 3.0 | 6.0 | 0.00 | 0.00 | 0.00 | 54 | 1011.8 |
| 20260504173106 | 68 | 216 | 3.0 | 11.0 | 0.00 | 0.00 | 0.00 | 55 | 1011.9 |
| 20260504172626 | 68 | 197 | 3.0 | 8.0 | 0.00 | 0.00 | 0.00 | 55 | 1011.9 |
| 20260504172106 | 68 | 203 | 4.0 | 9.0 | 0.00 | 0.00 | 0.00 | 55 | 1012.0 |
| 20260504171606 | 68 | 192 | 3.0 | 6.0 | 0.00 | 0.00 | 0.00 | 56 | 1012.1 |
| 20260504171106 | 67 | 216 | 2.0 | 6.0 | 0.00 | 0.00 | 0.00 | 56 | 1012.2 |
| 20260504170606 | 67 | 234 | 4.0 | 5.0 | 0.00 | 0.00 | 0.00 | 57 | 1012.3 |
| 20260504170126 | 67 | 239 | 3.0 | 8.0 | 0.00 | 0.00 | 0.00 | 56 | 1012.3 |
| 20260504160106 | 63 | 234 | 2.0 | 6.0 | 0.00 | 0.00 | 0.00 | 62 | 1013.1 |
| 20260504151107 | 60 | 237 | 4.0 | 7.0 | 0.00 | 0.00 | 0.00 | 65 | 1013.5 |
| 20260504150606 | 60 | 212 | 4.0 | 7.0 | 0.00 | 0.00 | 0.00 | 64 | 1013.6 |
| 20260504150106 | 60 | 220 | 3.0 | 6.0 | 0.00 | 0.00 | 0.00 | 65 | 1013.6 |
| 20260504141106 | 56 | 213 | 3.0 | 5.0 | 0.00 | 0.00 | 0.00 | 69 | 1013.7 |
| 20260504140606 | 55 | 245 | 3.0 | 7.0 | 0.00 | 0.00 | 0.00 | 69 | 1013.9 |
| 20260504140106 | 55 | 178 | 1.0 | 7.0 | 0.00 | 0.00 | 0.00 | 71 | 1014.0 |
| 20260504130607 | 52 | 230 | 2.0 | 3.0 | 0.00 | 0.00 | 0.00 | 79 | 1014.8 |
| 20260504130106 | 51 | 248 | 2.0 | 3.0 | 0.00 | 0.00 | 0.00 | 80 | 1014.7 |
| 20260504120107 | 50 | 227 | 1.0 | 4.0 | 0.00 | 0.00 | 0.00 | 87 | 1014.2 |
| 20260504110606 | 47 | 146 | 0.0 | 2.0 | 0.00 | 0.00 | 0.00 | 89 | 1015.0 |
| 20260504110106 | 48 | 190 | 1.0 | 3.0 | 0.00 | 0.00 | 0.00 | 88 | 1015.4 |
| 20260504100126 | 51 | 232 | 2.0 | 5.0 | 0.00 | 0.00 | 0.00 | 71 | 1013.5 |